[[{"header":{"parameterUnit":"m.s-1","parameterCategory":1,"la1":30.2991,"la2":30.254,"lo1":-89.0895,"lo2":-89.0444,"dy":0.0017,"dx":0.0017,"nx":28,"ny":28,"refTime":"2024-08-26T21:00:00:Z","depth":0,"parameterNumber":2,"parameterNumberName":"U-component_of_WINDS"},"data":[0,0,0,0,0,0,0,0,0,0,0,0,0,0,0,0,0,0,0,0,0,0,0,0,0,0,0,0,0,0,0,0,0,0,0,0,0,0,0,0,0,0,0,0,0,0,0,0,0,0,0,0,0,0,0,0,0,0,-1.5618,-1.5619,0,-1.5652,-1.5652,-1.5653,-1.5631,-1.563,-1.5629,-1.5628,-1.5665,-1.5667,-1.5669,0,0,0,0,0,0,0,0,0,0,0,0,0,-1.5538,-1.5539,-1.5618,-1.5619,-1.5619,-1.5652,-1.5652,-1.5653,-1.5631,-1.563,-1.5629,-1.5628,-1.5664,-1.5667,-1.5669,0,0,0,0,0,0,0,0,0,0,0,0,0,-1.5572,-1.554,-1.5618,-1.5612,-1.5612,-1.5652,-1.5652,-1.5653,-1.5631,-1.563,-1.5628,-1.5627,-1.5664,-1.5666,-1.5669,-1.5717,0,0,-1.5678,-1.5679,0,0,0,0,0,0,0,0,-1.557,-1.5575,-1.5613,-1.5613,-1.5613,-1.5636,-1.5637,-1.5675,-1.5632,-1.5624,-1.5628,-1.5626,-1.5657,-1.566,-1.567,-1.5719,-1.5721,-1.5678,-1.568,-1.5681,-1.5682,0,0,0,0,0,0,0,-1.5568,-1.5574,-1.5632,-1.5613,-1.5613,-1.5609,-1.5612,-1.5644,-1.5649,-1.5625,-1.5623,-1.5627,-1.5656,-1.5667,-1.567,-1.5721,-1.5678,-1.5681,-1.5683,-1.5684,-1.5813,-1.5814,0,0,0,0,0,0,-1.5566,-1.5572,-1.5631,-1.5633,-1.5587,-1.5611,-1.5615,-1.563,-1.5648,-1.5649,-1.5629,-1.5626,-1.5663,-1.5667,-1.5672,-1.573,-1.5681,-1.5684,-1.5686,-1.5811,-1.5813,-1.5815,0,0,0,0,0,0,-1.5564,-1.5571,-1.5629,-1.5602,-1.5609,-1.5614,-1.5631,-1.5631,-1.5642,-1.5651,-1.5652,-1.5639,-1.5662,-1.5668,-1.5706,-1.5731,-1.5685,-1.5688,-1.5809,-1.5812,-1.5814,-1.5847,0,0,0,0,0,0,-1.5562,-1.5571,-1.5589,-1.5602,-1.561,-1.5663,-1.5633,-1.5633,-1.5647,-1.5644,-1.5661,-1.5662,-1.5661,-1.5702,-1.5709,-1.5734,-1.569,-1.5807,-1.581,-1.5813,-1.5844,-1.5851,-1.5856,0,0,0,0,0,-1.5559,-1.5597,-1.559,-1.5597,-1.5633,-1.5664,-1.5669,-1.5666,-1.5649,-1.5667,-1.5673,-1.5661,-1.5727,-1.5706,-1.5714,-1.574,-1.5805,-1.5809,-1.5813,-1.5841,-1.5849,-1.5856,0,0,0,0,0,0,-1.5587,-1.5599,-1.5591,-1.5634,-1.5648,-1.566,-1.5684,-1.5675,-1.5695,-1.5691,-1.5688,-1.5692,-1.5733,-1.574,-1.5717,-1.5788,-1.5764,-1.5769,-1.5782,-1.579,-1.5796,-1.5794,-1.5693,0,0,0,0,0,-1.5598,-1.5622,-1.5631,-1.5668,-1.5676,-1.5679,-1.5692,-1.5689,-1.5703,-1.571,-1.5718,-1.5734,-1.5758,-1.5774,-1.5797,-1.5844,-1.5848,-1.5866,-1.5872,-1.5877,-1.5883,-1.591,-1.5918,-1.5828,-1.5828,-1.5827,0,0,-1.5622,-1.5631,-1.5646,-1.5674,-1.5685,-1.5711,-1.5684,-1.5712,-1.5731,-1.5714,-1.5751,-1.5758,-1.5775,-1.5819,-1.5839,-1.5827,-1.5908,-1.5882,-1.5886,-1.5889,-1.5915,-1.5923,-1.5931,-1.583,-1.583,-1.5829,0,0,-1.5678,-1.5687,-1.572,-1.573,-1.5746,-1.5748,-1.5755,-1.5769,-1.5773,-1.5809,-1.5797,-1.582,-1.5861,-1.5875,-1.5887,-1.5947,-1.5938,-1.5954,-1.5987,-1.6013,-1.6021,-1.6027,-1.605,-1.6058,-1.5959,-1.5959,-1.5959,0,-1.5706,-1.5743,-1.5738,-1.5767,-1.578,-1.5764,-1.5798,-1.5809,-1.5832,-1.5841,-1.5827,-1.5879,-1.5889,-1.5936,-1.595,-1.596,-1.597,-1.5953,-1.602,-1.6026,-1.6032,-1.6054,-1.6063,-1.5961,-1.5961,-1.5961,-1.5961,0,-1.5777,-1.5803,-1.5828,-1.585,-1.5865,-1.5896,-1.5896,-1.5913,-1.5907,-1.5911,-1.5949,-1.596,-1.5985,-1.5996,-1.5991,-1.6042,-1.6034,-1.602,-1.5995,-1.6043,-1.6064,-1.6072,-1.5964,-1.5964,-1.5963,-1.5962,0,0,-1.5854,-1.5871,-1.5881,-1.5891,-1.5907,-1.5927,-1.5958,-1.5981,-1.5996,-1.6012,-1.6038,-1.6073,-1.606,-1.6073,-1.607,-1.6093,-1.6142,-1.6076,-1.6076,-1.6089,-1.62,-1.6213,-1.6222,-1.6134,-1.6136,-1.6137,-1.6199,0,-1.5913,-1.5966,-1.5961,-1.6012,-1.6036,-1.6021,-1.6048,-1.6061,-1.6064,-1.6086,-1.609,-1.6116,-1.6095,-1.6104,-1.6125,-1.6131,-1.6164,-1.6126,-1.6161,-1.6162,-1.6159,-1.6233,-1.6246,-1.6304,-1.6207,-1.6209,-1.621,0,-1.5989,-1.6007,-1.606,-1.6072,-1.6082,-1.6106,-1.6127,-1.6148,-1.6163,-1.6164,-1.6178,-1.6171,-1.6203,-1.6176,-1.622,-1.6195,-1.6208,-1.6213,-1.6215,-1.622,-1.619,-1.6242,-1.6322,-1.6332,-1.6222,-1.6221,-1.622,0,-1.6042,-1.6079,-1.6115,-1.6124,-1.6139,-1.6156,-1.6164,-1.6177,-1.6191,-1.621,-1.6219,-1.6242,-1.6254,-1.6272,-1.6271,-1.6251,-1.6317,-1.629,-1.632,-1.6321,-1.6337,-1.6336,-1.6423,-1.6342,-1.6342,-1.6342,-1.6341,0,-1.6109,-1.6143,-1.614,-1.6162,-1.6199,-1.6194,-1.6231,-1.6236,-1.6247,-1.6272,-1.6259,-1.6283,-1.6279,-1.6302,-1.6302,-1.634,-1.6345,-1.6348,-1.6348,-1.635,-1.635,-1.6361,-1.6358,-1.6344,-1.6343,-1.6343,-1.6343,0,-1.6176,-1.6175,-1.6214,-1.6224,-1.6228,-1.6255,-1.6264,-1.6286,-1.6288,-1.6318,-1.6325,-1.6329,-1.6356,-1.6356,-1.6387,-1.6386,-1.6433,-1.6427,-1.6428,-1.6428,-1.6459,-1.6457,-1.6558,-1.6571,-1.648,-1.648,-1.6481,0,-1.622,-1.6245,-1.6258,-1.6273,-1.6281,-1.6305,-1.6319,-1.6314,-1.633,-1.6348,-1.6368,-1.6394,-1.6414,-1.6458,-1.6464,-1.6488,-1.6484,-1.6517,-1.6487,-1.6489,-1.6487,-1.6486,-1.6489,-1.6524,-1.6525,-1.6526,-1.6526,0,-1.6299,-1.6297,-1.6318,-1.6339,-1.6356,-1.6373,-1.6388,-1.6401,-1.6397,-1.6416,-1.6443,-1.6458,-1.6489,-1.6515,-1.6538,-1.6546,-1.6537,-1.6535,-1.6544,-1.6548,-1.6548,-1.655,-1.6446,-1.6534,-1.6533,-1.6532,-1.6532,-1.6532,-1.6357,-1.6379,-1.6392,-1.6415,-1.6426,-1.644,-1.6461,-1.6465,-1.6487,-1.6512,-1.6507,-1.6538,-1.6552,-1.6581,-1.6591,-1.6616,-1.6604,-1.6616,-1.662,-1.6624,-1.6628,-1.6542,-1.6619,-1.6619,-1.6619,-1.6619,-1.6619,0,-1.6437,-1.6444,-1.6466,-1.6487,-1.6506,-1.6493,-1.6509,-1.6526,-1.6553,-1.6566,-1.6586,-1.6617,-1.6642,-1.6649,-1.6673,-1.6692,-1.6688,-1.6699,-1.6698,-1.6701,-1.6636,-1.6627,-1.6701,-1.6701,-1.6701,-1.6701,-1.6701,-1.6701,-1.6481,-1.6518,-1.6518,-1.656,-1.6566,-1.6596,-1.6606,-1.662,-1.663,-1.6665,-1.6686,-1.669,-1.6701,-1.6726,-1.6748,-1.675,-1.6761,-1.6773,-1.6773,-1.6713,-1.6705,-1.6697,-1.6689,-1.6775,-1.6775,-1.6837,-1.6837,-1.6838]},{"header":{"parameterUnit":"m.s-1","parameterCategory":1,"la1":30.2991,"la2":30.254,"lo1":-89.0895,"lo2":-89.0444,"dy":0.0017,"dx":0.0017,"nx":28,"ny":28,"refTime":"2024-08-26T21:00:00:Z","depth":0,"parameterNumber":3,"parameterNumberName":"V-component_of_WINDS"},"data":[0,0,0,0,0,0,0,0,0,0,0,0,0,0,0,0,0,0,0,0,0,0,0,0,0,0,0,0,0,0,0,0,0,0,0,0,0,0,0,0,0,0,0,0,0,0,0,0,0,0,0,0,0,0,0,0,0,0,-3.1993,-3.1993,0,-3.1972,-3.1971,-3.1971,-3.192,-3.1918,-3.1917,-3.1916,-3.1894,-3.1894,-3.1895,0,0,0,0,0,0,0,0,0,0,0,0,0,-3.199,-3.1991,-3.1993,-3.1993,-3.1993,-3.1972,-3.1971,-3.1971,-3.192,-3.1918,-3.1917,-3.1916,-3.1894,-3.1894,-3.1895,0,0,0,0,0,0,0,0,0,0,0,0,0,-3.1983,-3.1991,-3.1993,-3.1965,-3.1962,-3.1972,-3.1971,-3.1971,-3.192,-3.1918,-3.1917,-3.1915,-3.1894,-3.1894,-3.1895,-3.1931,0,0,-3.1897,-3.1897,0,0,0,0,0,0,0,0,-3.1983,-3.1983,-3.1969,-3.1967,-3.1963,-3.1947,-3.1962,-3.1958,-3.192,-3.1936,-3.1916,-3.1914,-3.1913,-3.1912,-3.1911,-3.193,-3.1929,-3.1897,-3.1897,-3.1897,-3.1898,0,0,0,0,0,0,0,-3.1984,-3.1983,-3.1985,-3.1969,-3.1966,-3.1953,-3.195,-3.1961,-3.1934,-3.1934,-3.1931,-3.1929,-3.1911,-3.1911,-3.191,-3.1929,-3.1897,-3.1897,-3.1898,-3.1898,-3.1978,-3.1979,0,0,0,0,0,0,-3.1988,-3.1984,-3.1985,-3.1984,-3.1969,-3.1954,-3.1951,-3.1954,-3.1933,-3.1929,-3.193,-3.1926,-3.1911,-3.191,-3.1909,-3.1951,-3.1897,-3.1898,-3.1898,-3.1976,-3.1978,-3.198,0,0,0,0,0,0,-3.1988,-3.1989,-3.1986,-3.1983,-3.1982,-3.1956,-3.1959,-3.1954,-3.1954,-3.193,-3.1925,-3.1935,-3.1909,-3.1908,-3.1926,-3.195,-3.1898,-3.1899,-3.1974,-3.1977,-3.1979,-3.2036,0,0,0,0,0,0,-3.1989,-3.1989,-3.2003,-3.1984,-3.1982,-3.2004,-3.1961,-3.1955,-3.1955,-3.195,-3.1933,-3.1929,-3.1908,-3.1926,-3.1927,-3.195,-3.1899,-3.1972,-3.1975,-3.1978,-3.2031,-3.204,-3.2047,0,0,0,0,0,-3.1989,-3.2019,-3.2004,-3.2004,-3.1998,-3.2005,-3.2004,-3.1979,-3.1957,-3.1971,-3.1956,-3.193,-3.1947,-3.1928,-3.1929,-3.1952,-3.197,-3.1974,-3.1978,-3.2028,-3.2038,-3.2047,0,0,0,0,0,0,-3.2041,-3.2016,-3.1999,-3.2024,-3.2017,-3.1996,-3.2012,-3.1991,-3.199,-3.1985,-3.1954,-3.1951,-3.1974,-3.1964,-3.1944,-3.1987,-3.1954,-3.1959,-3.1992,-3.2002,-3.2009,-3.2011,-3.19,0,0,0,0,0,-3.2055,-3.2063,-3.2041,-3.2065,-3.2063,-3.2038,-3.204,-3.2022,-3.2014,-3.2011,-3.1997,-3.199,-3.1994,-3.1997,-3.1999,-3.203,-3.2026,-3.2046,-3.2054,-3.2061,-3.2065,-3.2082,-3.2091,-3.1993,-3.1993,-3.1993,0,0,-3.2085,-3.2073,-3.2079,-3.2075,-3.2068,-3.2077,-3.2036,-3.2047,-3.2054,-3.2012,-3.2029,-3.2018,-3.2009,-3.2034,-3.2044,-3.2027,-3.2091,-3.2066,-3.2071,-3.2072,-3.2087,-3.2096,-3.2104,-3.1996,-3.1995,-3.1995,0,0,-3.2144,-3.2135,-3.2155,-3.2149,-3.2139,-3.2122,-3.2127,-3.211,-3.2102,-3.2118,-3.2088,-3.2095,-3.2102,-3.2097,-3.2095,-3.2154,-3.2131,-3.2156,-3.2196,-3.2213,-3.2221,-3.2227,-3.225,-3.2258,-3.216,-3.216,-3.216,0,-3.2183,-3.2195,-3.2168,-3.2182,-3.2181,-3.2144,-3.2165,-3.216,-3.2151,-3.2152,-3.2133,-3.2142,-3.2133,-3.2157,-3.2171,-3.217,-3.2176,-3.2158,-3.2222,-3.2228,-3.2234,-3.2255,-3.2263,-3.2163,-3.2163,-3.2162,-3.2162,0,-3.2244,-3.2253,-3.227,-3.2263,-3.2265,-3.2281,-3.2257,-3.2262,-3.2244,-3.223,-3.2247,-3.2235,-3.2235,-3.2239,-3.2221,-3.2261,-3.2251,-3.2227,-3.2194,-3.2247,-3.2266,-3.2274,-3.2168,-3.2167,-3.2166,-3.2165,0,0,-3.2335,-3.2313,-3.232,-3.2317,-3.2304,-3.231,-3.2326,-3.2326,-3.2331,-3.2326,-3.2339,-3.2347,-3.2326,-3.2324,-3.2305,-3.2319,-3.2368,-3.2294,-3.2294,-3.2309,-3.2413,-3.2432,-3.2441,-3.2353,-3.2354,-3.2355,-3.2414,0,-3.2391,-3.2417,-3.2394,-3.2424,-3.2433,-3.2398,-3.2412,-3.2405,-3.2393,-3.2399,-3.2385,-3.2391,-3.2362,-3.2361,-3.2374,-3.236,-3.2389,-3.2355,-3.2365,-3.2366,-3.237,-3.2451,-3.247,-3.2527,-3.2421,-3.2423,-3.2424,0,-3.2461,-3.246,-3.2492,-3.2477,-3.248,-3.2493,-3.2492,-3.2498,-3.249,-3.248,-3.2479,-3.2456,-3.2471,-3.2438,-3.2458,-3.2436,-3.2438,-3.2432,-3.2434,-3.2434,-3.2399,-3.2455,-3.2544,-3.2553,-3.2435,-3.2434,-3.2433,0,-3.2526,-3.2533,-3.2553,-3.2551,-3.2534,-3.2544,-3.2538,-3.2528,-3.2531,-3.253,-3.2531,-3.2532,-3.2532,-3.2534,-3.2512,-3.249,-3.2536,-3.2501,-3.2529,-3.2529,-3.254,-3.254,-3.2632,-3.2541,-3.254,-3.254,-3.254,0,-3.2592,-3.2613,-3.2582,-3.2594,-3.2617,-3.259,-3.2613,-3.2603,-3.2595,-3.2606,-3.2575,-3.2586,-3.2556,-3.2563,-3.2546,-3.2567,-3.2567,-3.256,-3.2555,-3.2563,-3.2564,-3.2565,-3.2561,-3.2543,-3.2542,-3.2542,-3.2541,0,-3.2669,-3.2648,-3.2668,-3.2651,-3.2648,-3.2665,-3.2651,-3.2662,-3.2648,-3.2661,-3.2663,-3.2641,-3.2648,-3.2627,-3.263,-3.2619,-3.2649,-3.2637,-3.2652,-3.2649,-3.2678,-3.2676,-3.2775,-3.2787,-3.2687,-3.2688,-3.2689,0,-3.2713,-3.2728,-3.2713,-3.2718,-3.2714,-3.2722,-3.2724,-3.2698,-3.2702,-3.2695,-3.2707,-3.2712,-3.2715,-3.2728,-3.2712,-3.2715,-3.2704,-3.2739,-3.2704,-3.2712,-3.2706,-3.2706,-3.2708,-3.2746,-3.2747,-3.2748,-3.2749,0,-3.2794,-3.2783,-3.2788,-3.2789,-3.2793,-3.2793,-3.279,-3.2796,-3.2769,-3.2775,-3.2782,-3.2784,-3.2788,-3.2794,-3.2794,-3.2787,-3.2764,-3.276,-3.2767,-3.2775,-3.2784,-3.2781,-3.2672,-3.2758,-3.2757,-3.2756,-3.2756,-3.2756,-3.2856,-3.2869,-3.2861,-3.2867,-3.2863,-3.2862,-3.2872,-3.2859,-3.2865,-3.2867,-3.2851,-3.2862,-3.2855,-3.2852,-3.2849,-3.2857,-3.2841,-3.2851,-3.2853,-3.2856,-3.2862,-3.2782,-3.2857,-3.2856,-3.2856,-3.2856,-3.2856,0,-3.2936,-3.293,-3.2936,-3.2934,-3.294,-3.2917,-3.2914,-3.292,-3.293,-3.2926,-3.2929,-3.2938,-3.2944,-3.2929,-3.2933,-3.2942,-3.2932,-3.2944,-3.2944,-3.2943,-3.2875,-3.287,-3.2953,-3.2953,-3.2953,-3.2953,-3.2953,-3.2953,-3.2979,-3.3,-3.2988,-3.3007,-3.3,-3.3011,-3.3011,-3.3011,-3.3007,-3.3019,-3.3023,-3.3014,-3.3005,-3.3008,-3.3013,-3.3008,-3.3011,-3.3028,-3.302,-3.2957,-3.2948,-3.2939,-3.2933,-3.3028,-3.3028,-3.3087,-3.3088,-3.3088]}]]